Qianfan Jigui 06-07

operational
NORAD ID: 62791 Int'l Des: 2025-016 Owner: YUANX Country: CN Constellation: qianfan
LEOCIRCULARPOLAR

关于 Qianfan Jigui 06-07

正在加载描述...

实时位置

正在加载3D地球...

即将过境

高度历史

Altitude vs Time

uPlot chart will show altitude changes over time

两行轨道根数

1 62791U 25016G 26063.13506104 .00000068 00000-0 86878-4 0 9991
2 62791 88.9739 94.8567 0016830 106.4192 253.8811 13.50993849 58238
Epoch: Mar 4, 2026 • Age: 11 hours

当前状态

高度 1087.6 km
速度 7.31 km/s
星下点 -37.53°S, 57.97°W
发射日期 Jan 23, 2025
运行时间 1.1 years
类型 internet

技术详情

分类 Payload
质量 267.00 kg
干质量 267.00 kg
总质量 267.00 kg
长度 0.30 m
直径 3.00 m
跨度 10.00 m
形状 Box+pan
制造商 SECM
平台类型 Qianfan
阶段状态 In Orbit
所有者/国家 YUANX/CN

大型星座

Loading constellations...